When you browse on this site, cookies collect data to enhance your experience and personalize the content and advertising you see.
Visit our Privacy Policy to learn more. By continuing to use the site, you agree to this use of cookies and data.
  • In Belgium
  • List of Countries
  • For 7 days
  • Water Temperature
  • Satellite Maps
  • Weather Map
  • Weather Widgets
  • user-avatar
    Login

    Hourly Weather Starokonstantinov

    Today, 21 January, Monday

    Time Temperature Precipitation Wind Pressure Humidity
    00:00 -8°C° 0 mm 2 mps 738 mmHg 96%
    01:00 -8°C° 0 mm 2 mps 738 mmHg 96%
    02:00 -8°C° 0 mm 2 mps 738 mmHg 97%
    03:00 -10°C° 0 mm 3 mps 738 mmHg 97%
    04:00 -10°C° 0 mm 3 mps 738 mmHg 96%
    05:00 -12°C° 0 mm 3 mps 738 mmHg 96%
    06:00 -12°C° 0 mm 3 mps 739 mmHg 96%
    07:00 -13°C° 0 mm 3 mps 739 mmHg 97%
    08:00 -13°C° 0 mm 3 mps 740 mmHg 97%
    09:00 -12°C° 0 mm 3 mps 740 mmHg 96%
    10:00 -9°C° 0 mm 3 mps 740 mmHg 96%
    11:00 -8°C° 0 mm 3 mps 741 mmHg 95%
    12:00 -8°C° 0 mm 3 mps 741 mmHg 94%
    13:00 -7°C° 0 mm 3 mps 741 mmHg 94%
    14:00 -7°C° 0 mm 3 mps 741 mmHg 91%
    15:00 -6°C° 0 mm 2 mps 741 mmHg 92%
    16:00 -7°C° 0 mm 2 mps 741 mmHg 92%
    17:00 -7°C° 0 mm 2 mps 741 mmHg 93%
    18:00 -8°C° 0 mm 2 mps 741 mmHg 93%
    19:00 -8°C° 0 mm 2 mps 741 mmHg 93%
    20:00 -8°C° 0 mm 2 mps 742 mmHg 93%
    21:00 -8°C° 0 mm 1 mps 742 mmHg 93%
    22:00 -8°C° 0 mm 1 mps 742 mmHg 93%
    23:00 -8°C° 0 mm 1 mps 742 mmHg 92%

    Tomorrow, 22 January, Tuesday

    Time Temperature Precipitation Wind Pressure Humidity
    00:00 -9°C° 0 mm 1 mps 742 mmHg 92%
    01:00 -9°C° 0 mm 1 mps 742 mmHg 92%
    02:00 -9°C° 0 mm 1 mps 742 mmHg 92%
    03:00 -9°C° 0 mm 1 mps 741 mmHg 92%
    04:00 -9°C° 0 mm 1 mps 741 mmHg 92%
    05:00 -9°C° 0 mm 1 mps 741 mmHg 91%
    06:00 -9°C° 0 mm 1 mps 741 mmHg 92%
    07:00 -10°C° 0 mm 1 mps 741 mmHg 92%
    08:00 -10°C° 0 mm 1 mps 741 mmHg 92%
    09:00 -10°C° 0 mm 1 mps 741 mmHg 92%
    10:00 -10°C° 0 mm 2 mps 741 mmHg 93%
    11:00 -10°C° 0 mm 2 mps 741 mmHg 93%
    12:00 -9°C° 0 mm 2 mps 740 mmHg 93%
    13:00 -9°C° 0 mm 2 mps 740 mmHg 93%
    14:00 -10°C° 0 mm 3 mps 739 mmHg 92%
    15:00 -12°C° 0 mm 3 mps 739 mmHg 93%
    16:00 -12°C° 0 mm 3 mps 738 mmHg 94%
    17:00 -13°C° 0 mm 3 mps 738 mmHg 96%
    18:00 -13°C° 0 mm 3 mps 737 mmHg 96%
    19:00 -14°C° 0 mm 3 mps 737 mmHg 96%
    20:00 -14°C° 0 mm 3 mps 737 mmHg 96%
    21:00 -13°C° 0.2 mm 3 mps 736 mmHg 96%
    22:00 -14°C° 0.2 mm 4 mps 736 mmHg 95%
    23:00 -12°C° 0.2 mm 4 mps 735 mmHg 95%

    Day after tomorrow, 23 January, Wednesday

    Time Temperature Precipitation Wind Pressure Humidity
    00:00 -12°C° 0.3 mm 4 mps 735 mmHg 95%
    01:00 -11°C° 0.3 mm 4 mps 734 mmHg 94%
    02:00 -12°C° 0.3 mm 5 mps 734 mmHg 94%
    03:00 -12°C° 0.4 mm 5 mps 733 mmHg 94%
    04:00 -11°C° 0.4 mm 5 mps 732 mmHg 94%
    05:00 -11°C° 0.4 mm 5 mps 732 mmHg 94%
    06:00 -10°C° 0.4 mm 4 mps 731 mmHg 95%
    07:00 -9°C° 0.4 mm 4 mps 731 mmHg 95%
    08:00 -9°C° 0.4 mm 4 mps 731 mmHg 95%
    09:00 -9°C° 0.4 mm 4 mps 731 mmHg 95%
    10:00 -8°C° 0.4 mm 4 mps 731 mmHg 95%
    11:00 -8°C° 0.4 mm 4 mps 730 mmHg 95%
    12:00 -8°C° 0.4 mm 4 mps 730 mmHg 95%
    13:00 -7°C° 0.4 mm 4 mps 729 mmHg 95%
    14:00 -6°C° 0.4 mm 3 mps 729 mmHg 95%
    15:00 -7°C° 0.4 mm 3 mps 729 mmHg 95%
    16:00 -7°C° 0.4 mm 3 mps 728 mmHg 96%
    17:00 -7°C° 0.4 mm 3 mps 728 mmHg 96%
    18:00 -7°C° 0.1 mm 3 mps 729 mmHg 96%
    19:00 -8°C° 0.1 mm 3 mps 729 mmHg 96%
    20:00 -8°C° 0.1 mm 3 mps 729 mmHg 96%
    21:00 -9°C° 0 mm 3 mps 729 mmHg 96%
    22:00 -9°C° 0 mm 3 mps 730 mmHg 97%
    23:00 -9°C° 0 mm 3 mps 730 mmHg 97%

    24 January, Thursday

    Time Temperature Precipitation Wind Pressure Humidity
    00:00 -8°C° 0 mm 2 mps 730 mmHg 97%
    01:00 -8°C° 0 mm 2 mps 731 mmHg 97%
    02:00 -8°C° 0 mm 2 mps 731 mmHg 97%
    03:00 -8°C° 0 mm 2 mps 731 mmHg 97%
    04:00 -9°C° 0 mm 2 mps 732 mmHg 97%
    05:00 -9°C° 0 mm 2 mps 732 mmHg 97%
    06:00 -9°C° 0 mm 2 mps 732 mmHg 97%
    07:00 -9°C° 0 mm 2 mps 733 mmHg 97%
    08:00 -9°C° 0 mm 2 mps 733 mmHg 97%
    09:00 -8°C° 0 mm 2 mps 734 mmHg 97%
    10:00 -8°C° 0 mm 2 mps 734 mmHg 96%
    11:00 -8°C° 0 mm 2 mps 734 mmHg 95%
    12:00 -7°C° 0 mm 2 mps 734 mmHg 93%
    13:00 -7°C° 0 mm 2 mps 734 mmHg 91%
    14:00 -7°C° 0 mm 2 mps 734 mmHg 90%
    15:00 -7°C° 0 mm 2 mps 735 mmHg 91%
    16:00 -7°C° 0 mm 2 mps 735 mmHg 92%
    17:00 -8°C° 0 mm 2 mps 735 mmHg 92%
    18:00 -8°C° 0 mm 2 mps 735 mmHg 93%
    19:00 -9°C° 0 mm 2 mps 735 mmHg 94%
    20:00 -9°C° 0 mm 2 mps 736 mmHg 95%
    21:00 -9°C° 0 mm 2 mps 736 mmHg 96%
    22:00 -9°C° 0 mm 2 mps 736 mmHg 97%
    23:00 -9°C° 0 mm 2 mps 736 mmHg 97%

    25 January, Friday

    Time Temperature Precipitation Wind Pressure Humidity
    00:00 -10°C° 0 mm 2 mps 736 mmHg 98%
    01:00 -10°C° 0 mm 2 mps 736 mmHg 98%
    02:00 -10°C° 0 mm 2 mps 736 mmHg 98%
    03:00 -10°C° 0 mm 2 mps 736 mmHg 97%
    04:00 -12°C° 0 mm 3 mps 736 mmHg 96%
    05:00 -12°C° 0 mm 3 mps 736 mmHg 95%
    06:00 -13°C° 0 mm 3 mps 736 mmHg 95%
    07:00 -13°C° 0 mm 3 mps 736 mmHg 95%
    08:00 -14°C° 0 mm 3 mps 737 mmHg 96%
    09:00 -13°C° 0 mm 3 mps 737 mmHg 95%
    10:00 -13°C° 0 mm 3 mps 737 mmHg 95%
    11:00 -13°C° 0 mm 3 mps 737 mmHg 95%
    12:00 -12°C° 0 mm 3 mps 737 mmHg 94%
    13:00 -12°C° 0 mm 3 mps 736 mmHg 92%
    14:00 -12°C° 0 mm 3 mps 736 mmHg 91%
    15:00 -10°C° 0 mm 2 mps 736 mmHg 92%
    16:00 -10°C° 0 mm 2 mps 736 mmHg 93%
    17:00 -12°C° 0 mm 2 mps 736 mmHg 94%
    18:00 -12°C° 0 mm 2 mps 736 mmHg 94%
    19:00 -12°C° 0 mm 2 mps 736 mmHg 95%
    20:00 -13°C° 0 mm 2 mps 737 mmHg 96%
    21:00 -13°C° 0 mm 2 mps 737 mmHg 96%
    22:00 -13°C° 0 mm 2 mps 737 mmHg 97%
    23:00 -13°C° 0 mm 2 mps 737 mmHg 97%

    26 January, Saturday

    Time Temperature Precipitation Wind Pressure Humidity
    00:00 -13°C° 0 mm 2 mps 737 mmHg 97%
    01:00 -13°C° 0 mm 2 mps 736 mmHg 97%
    02:00 -13°C° 0 mm 2 mps 736 mmHg 98%
    03:00 -11°C° 0 mm 1 mps 736 mmHg 98%
    04:00 -11°C° 0 mm 1 mps 736 mmHg 98%
    05:00 -11°C° 0 mm 1 mps 735 mmHg 98%
    06:00 -11°C° 0 mm 1 mps 736 mmHg 98%
    07:00 -11°C° 0 mm 1 mps 736 mmHg 97%
    08:00 -13°C° 0 mm 2 mps 736 mmHg 97%
    09:00 -11°C° 0 mm 1 mps 736 mmHg 96%
    10:00 -10°C° 0 mm 1 mps 736 mmHg 95%
    11:00 -10°C° 0 mm 1 mps 736 mmHg 94%
    12:00 -9°C° 0 mm 1 mps 736 mmHg 93%
    13:00 -9°C° 0 mm 1 mps 735 mmHg 91%
    14:00 -8°C° 0 mm 1 mps 735 mmHg 90%
    15:00 -9°C° 0 mm 1 mps 735 mmHg 91%
    16:00 -10°C° 0 mm 1 mps 734 mmHg 92%
    17:00 -11°C° 0 mm 0 mps 734 mmHg 93%
    18:00 -11°C° 0 mm 0 mps 734 mmHg 94%
    19:00 -11°C° 0 mm 0 mps 734 mmHg 94%
    20:00 -12°C° 0 mm 1 mps 734 mmHg 94%
    21:00 -12°C° 0 mm 1 mps 734 mmHg 94%
    22:00 -12°C° 0 mm 1 mps 734 mmHg 95%
    23:00 -14°C° 0 mm 2 mps 734 mmHg 95%
    Show more